This is the latest recevied weather packets stored in our database for station/object K7NDG. If no packets are shown the sender has not sent any weather packets the latest 10 day(s).
| Time | Temp. | Humidity | Pressure | Rain* | Wind** | Luminosity | Snow |
|---|---|---|---|---|---|---|---|
| 1777509274 | 20.56° C | 53% | 1022.3 hPa | 0 mm | - | 154 W/m² | - |
| 1777508971 | 21.11° C | 52% | 1022.2 hPa | 0 mm | - | 295 W/m² | - |
| 1777508668 | 21.11° C | 52% | 1022.4 hPa | 0 mm | - | 254 W/m² | - |
| 1777508366 | 21.11° C | 53% | 1022 hPa | 0 mm | - | 316 W/m² | - |
| 1777508062 | 21.11° C | 51% | 1022.2 hPa | 0 mm | - | 372 W/m² | - |
| 1777507759 | 21.11° C | 52% | 1022.2 hPa | 0 mm | - | 390 W/m² | - |
| 1777507456 | 21.11° C | 51% | 1022.3 hPa | 0 mm | - | 369 W/m² | - |
| 1777507153 | 21.11° C | 52% | 1022.2 hPa | 0 mm | - | 399 W/m² | - |
| 1777506851 | 21.11° C | 52% | 1022.5 hPa | 0 mm | - | 420 W/m² | - |
| 1777506548 | 21.11° C | 53% | 1022.4 hPa | 0 mm | - | 262 W/m² | - |
| 1777506243 | 21.11° C | 54% | 1022.5 hPa | 0 mm | - | 248 W/m² | - |
| 1777505940 | 21.11° C | 51% | 1022.6 hPa | 0 mm | - | 198 W/m² | - |
| 1777505635 | 21.67° C | 51% | 1022.3 hPa | 0 mm | - | 410 W/m² | - |
| 1777505333 | 21.67° C | 52% | 1022.4 hPa | 0 mm | - | 455 W/m² | - |
| 1777505029 | 21.67° C | 52% | 1022.5 hPa | 0 mm | - | 532 W/m² | - |
| 1777504726 | 21.67° C | 51% | 1022.6 hPa | 0 mm | - | 603 W/m² | - |
| 1777504424 | 21.67° C | 54% | 1022.9 hPa | 0 mm | - | 636 W/m² | - |
| 1777504118 | 21.11° C | 54% | 1022.8 hPa | 0 mm | - | 683 W/m² | - |
| 1777503814 | 21.11° C | 52% | 1022.8 hPa | 0 mm | - | 723 W/m² | - |
| 1777503511 | 21.11° C | 53% | 1022.9 hPa | 0 mm | - | 741 W/m² | - |
| 1777503207 | 21.11° C | 54% | 1022.8 hPa | 0 mm | - | 685 W/m² | - |
| 1777502904 | 21.11° C | 55% | 1022.9 hPa | 0 mm | - | 625 W/m² | - |
| 1777502602 | 20.56° C | 54% | 1022.9 hPa | 0 mm | - | 642 W/m² | - |
| 1777502299 | 21.11° C | 54% | 1023 hPa | 0 mm | - | 623 W/m² | - |
| 1777501995 | 21.11° C | 55% | 1023 hPa | 0 mm | - | 646 W/m² | - |
* Rain latest hour (hover to see other rain measurements)
** Current wind speed in m/s (hover to see current wind gust speed)